Tracking 30058 objects as of 10-Dec-2024
HD Live streaming from Space Station
objects crossing your sky now

STARLINK-5716

Track STARLINK-5716 now!
10-day predictions
STARLINK-5716 is classified as:


NORAD ID: 56504
Int'l Code: 2023-065B
Perigee: 565.3 km
Apogee: 567.1 km
Inclination: 43.0 °
Period: 95.8 minutes
Semi major axis: 6937 km
RCS: Unknown
Launch date: May 14, 2023
Source: United States (US)
Launch site: AIR FORCE EASTERN TEST RANGE (AFETR)
Your satellite tracking list
Your tracking list is empty




NASA's NSSDC Master Catalog

Two Line Element Set (TLE):
1 56504U 23065B   24344.79997554  .00000565  00000-0  56884-4 0  9999
2 56504  43.0030 162.4217 0001279 271.7185  88.3511 15.02536833 88193
Source of the keplerian elements: AFSPC